Theta_e
325 325 326 324 324 322 319 317 316 317 321 318 314 316 320 315 312 318 320 321 325 327 330 339 334 330 336 339 341 341 340 342 342 342 343 342 342 343 343 345 345 346 346 344 343 342 342 342 343 344 346 347 349 350 351 351 352 352 352 353 353 354 354
322 323 326 325 323 325 320 315 317 319 319 319 317 314 314 313 313 318 319 316 317 318 326 343 340 333 336 338 341 342 341 342 341 342 343 341 341 342 342 344 344 345 345 344 343 342 342 343 342 343 345 346 348 349 350 350 351 352 352 352 353 353 354
322 322 323 322 322 323 320 320 322 320 317 314 316 315 314 314 315 316 317 318 318 317 326 341 337 335 340 339 340 342 341 342 342 341 342 341 341 341 341 342 343 344 345 343 342 342 342 342 342 343 344 345 347 348 349 350 350 351 352 352 353 353 354
321 322 321 318 318 322 321 321 320 321 319 314 315 317 315 315 317 317 314 313 315 321 334 342 339 341 341 337 340 343 340 341 342 341 342 342 342 341 340 341 342 342 343 342 342 342 342 342 342 343 343 344 346 347 349 350 350 350 351 352 352 353 354
318 319 320 319 319 320 319 318 315 315 317 316 315 315 315 316 318 318 314 310 315 332 345 345 344 346 341 337 340 341 340 341 341 341 342 342 342 342 340 340 340 341 342 342 341 342 342 342 342 342 342 343 345 346 348 349 349 350 350 351 352 353 353
314 317 322 322 323 323 320 319 317 315 315 315 314 314 315 315 316 320 318 309 314 334 342 341 347 347 341 339 338 339 340 340 340 342 341 342 343 343 341 340 339 339 341 342 341 341 342 342 342 342 342 343 344 346 347 348 349 350 350 351 352 352 353
318 321 324 321 322 323 322 322 321 319 318 314 312 312 315 314 314 320 320 312 318 338 340 337 345 349 344 341 339 341 341 338 340 342 340 342 344 344 342 340 339 340 341 341 341 341 342 341 341 342 342 343 344 345 346 348 349 349 350 351 351 352 353
322 323 324 322 323 322 320 321 322 320 318 316 315 319 321 317 313 316 317 311 319 340 344 336 337 342 342 339 338 341 342 338 338 340 341 344 344 344 344 342 341 341 340 342 343 343 343 342 341 342 342 343 343 344 346 347 349 349 350 350 351 351 353
317 318 320 320 320 321 320 322 323 320 321 320 319 323 322 315 313 315 315 311 319 342 350 339 336 338 337 336 335 337 340 340 340 340 341 345 345 346 348 347 345 343 343 345 346 346 344 342 342 342 342 343 343 344 346 346 348 349 349 350 351 351 352
317 316 320 320 320 321 321 323 323 322 323 319 317 317 314 314 319 316 312 315 328 345 344 333 334 338 337 339 340 338 339 341 342 343 345 348 351 352 353 351 348 346 346 346 347 347 344 341 342 342 342 343 343 343 345 346 347 349 349 350 351 351 352
322 321 324 325 324 322 319 319 321 322 323 321 319 315 311 319 324 315 316 325 325 325 329 330 335 338 336 339 341 341 345 345 343 343 345 349 352 352 352 351 349 348 349 348 347 347 344 341 342 342 342 343 344 344 345 345 347 348 350 351 351 352 353
324 323 324 323 323 324 321 320 320 321 324 323 319 315 316 326 322 311 325 340 323 318 331 336 338 342 338 340 339 336 345 349 344 342 343 345 348 349 350 350 349 350 350 349 348 347 344 342 342 343 343 343 344 344 345 346 347 348 350 351 351 352 353
321 320 321 321 322 325 323 322 320 319 322 322 317 317 322 327 319 312 329 341 325 326 341 338 340 346 339 339 337 332 338 344 344 344 347 348 347 347 350 350 350 351 349 349 349 348 346 343 342 342 343 343 344 345 345 346 347 348 350 351 352 353 353
321 320 321 323 322 323 322 322 321 319 321 321 319 322 324 325 321 320 333 340 330 329 336 335 338 342 337 338 338 333 336 341 341 341 345 347 345 343 347 348 348 348 349 349 349 349 349 347 343 342 343 344 345 345 346 346 347 348 349 351 353 353 354
322 320 321 322 320 322 323 322 322 320 319 320 319 320 323 324 323 322 329 334 332 333 338 337 333 332 331 335 338 339 343 345 342 340 340 342 344 343 344 346 346 347 348 349 350 350 350 348 344 342 343 344 345 345 346 347 347 348 350 351 353 353 354
323 321 321 320 319 322 323 321 323 322 318 319 319 320 324 323 323 324 324 323 327 334 340 336 331 332 334 335 341 349 357 358 354 351 351 351 350 348 346 345 347 347 347 348 349 349 348 345 343 343 344 344 345 346 347 347 348 349 350 351 353 353 354
327 322 318 320 322 323 320 318 323 323 320 321 319 321 326 325 323 323 320 320 327 334 337 334 331 331 332 335 343 352 367 378 368 359 359 358 351 349 348 349 348 346 345 346 347 347 346 344 343 343 344 344 345 346 346 348 348 349 351 352 352 353 354
329 323 319 323 327 325 321 320 323 324 323 323 321 321 324 325 325 325 323 326 330 331 334 332 328 329 334 347 355 354 363 378 373 363 360 361 358 354 351 350 348 347 346 346 346 344 344 344 343 344 344 345 346 347 347 348 349 350 351 352 353 354 354
328 326 325 329 331 327 323 322 325 329 326 319 321 324 325 325 324 323 327 330 328 331 331 325 336 358 364 363 363 356 353 358 363 364 365 368 370 368 360 354 353 353 354 353 350 344 341 343 344 344 345 345 346 347 348 349 350 351 352 353 353 354 355
328 329 330 332 330 326 324 326 334 340 343 336 329 323 319 327 330 325 326 330 330 332 328 328 355 378 369 360 360 359 356 353 352 357 362 362 363 363 360 359 359 357 353 349 348 344 340 342 344 344 345 346 347 348 349 349 351 351 352 353 354 355 356
326 328 329 330 327 325 331 340 343 344 346 345 340 333 329 340 347 334 324 328 334 333 332 343 360 363 358 358 356 352 354 353 349 352 354 351 353 354 352 352 353 350 345 340 339 340 340 342 344 345 346 346 347 349 350 350 351 352 352 354 354 355 356
326 326 326 328 329 330 338 342 339 338 338 339 340 337 337 348 359 345 324 323 339 344 346 354 357 352 352 359 355 349 351 351 347 349 350 347 349 349 347 349 350 347 346 343 339 340 341 342 343 344 346 347 348 349 350 351 352 352 353 354 354 355 356
325 324 325 327 327 331 339 340 337 336 336 337 337 334 331 342 361 356 338 326 336 347 354 355 353 345 346 358 359 353 349 348 347 348 348 346 346 345 346 348 350 348 348 345 342 341 341 342 343 344 346 348 349 349 350 351 352 352 353 353 354 355 356
323 326 327 325 323 329 339 338 336 336 336 336 334 328 327 341 354 356 349 336 335 345 352 350 348 344 344 354 359 351 346 347 347 346 346 346 346 345 346 347 348 348 348 347 348 348 346 345 344 344 346 347 348 349 350 350 351 352 352 353 354 354 355
320 323 324 324 327 335 339 337 335 336 337 333 329 328 334 339 346 351 350 342 337 341 345 346 351 358 357 354 352 346 345 347 346 344 345 345 345 345 345 346 347 348 347 348 349 348 349 351 349 345 346 347 348 349 349 350 351 352 352 353 353 354 354
320 324 325 326 331 336 337 336 334 334 337 337 335 334 333 336 344 351 349 346 345 347 350 352 356 354 349 347 347 345 344 345 345 344 345 345 345 346 345 345 347 347 347 347 347 346 349 353 353 351 349 348 348 349 349 350 351 351 352 352 352 353 354
329 333 331 333 336 335 335 338 338 336 338 339 336 332 331 337 346 350 348 349 351 352 353 353 350 349 347 346 346 344 343 344 344 344 344 346 346 346 345 346 346 346 346 346 345 345 347 350 354 355 354 352 351 350 349 350 351 351 351 352 352 353 353
338 340 338 338 338 336 334 338 340 336 334 334 332 331 333 338 341 342 345 349 348 347 350 350 347 348 348 346 346 346 345 345 344 345 345 345 345 346 345 345 346 346 346 346 345 344 344 346 350 353 355 355 354 353 352 353 355 355 354 353 352 353 353
340 344 345 341 338 336 334 335 335 332 330 330 330 330 331 332 332 334 342 348 346 343 345 346 347 348 347 345 345 344 344 344 344 345 345 344 344 345 344 343 344 345 345 345 344 343 343 345 347 350 352 353 351 351 353 355 357 359 357 355 354 353 353
339 341 342 339 337 337 335 332 331 330 330 330 328 327 327 328 328 330 336 342 343 342 343 345 346 345 343 343 342 341 343 344 343 344 344 343 342 342 342 342 342 342 343 344 344 344 343 343 345 346 348 350 349 350 353 355 356 358 359 359 357 355 354
338 339 339 338 337 336 335 333 332 331 331 331 329 326 325 325 326 328 330 332 335 338 340 341 342 340 339 340 341 341 342 343 344 344 343 342 342 341 342 342 342 342 344 344 345 345 343 343 343 344 345 345 346 348 351 354 354 355 358 361 360 359 358
338 340 339 338 336 334 334 334 334 333 333 332 330 327 325 324 325 326 327 328 330 333 336 337 338 338 338 339 340 341 342 343 344 343 342 342 342 342 342 342 343 343 344 344 345 344 343 343 344 344 344 343 343 343 347 350 353 354 356 358 360 361 361
338 340 337 338 339 336 333 333 333 333 333 332 331 328 326 326 326 326 327 327 328 329 332 334 335 337 337 337 338 339 340 342 343 343 342 343 342 342 342 342 343 343 343 344 344 344 343 344 344 344 345 343 342 341 342 345 350 353 354 356 357 358 359
337 339 338 340 343 340 335 333 332 332 332 331 329 328 328 327 326 327 328 329 328 327 328 330 333 335 336 336 336 336 337 338 339 339 339 339 339 340 340 340 341 341 342 342 342 342 342 343 344 345 345 343 341 341 341 342 345 348 351 353 352 352 353
336 338 337 339 341 339 334 332 332 332 332 330 328 328 328 327 326 327 328 330 330 328 327 327 329 332 333 333 333 334 334 334 334 334 335 335 335 336 336 337 337 338 339 339 340 339 340 341 343 344 345 343 341 340 341 341 342 344 346 346 344 343 343
331 336 336 337 338 336 332 331 332 331 331 331 329 328 328 327 327 327 328 328 329 329 328 327 326 328 330 330 330 331 331 330 330 331 331 331 331 332 332 333 334 335 336 337 338 338 339 341 343 343 344 343 340 338 339 340 340 340 341 341 339 338 339
330 335 334 334 335 334 331 331 331 331 331 330 330 328 328 328 328 327 328 328 328 329 328 327 325 325 327 328 328 329 329 329 329 330 329 329 329 330 330 331 332 333 334 335 336 337 339 340 342 343 344 345 342 339 339 339 340 341 341 340 339 338 338
Wind_Speed
10 13 10 9 8 5 3 5 7 6 5 7 4 4 3 2 3 4 2 3 5 4 6 6 6 8 10 12 13 15 16 17 15 13 11 12 14 16 17 17 18 19 18 19 24 27 29 31 32 35 38 40 41 40 39 40 41 41 42 44 44 44 43
10 9 10 10 9 8 6 6 8 2 5 4 4 3 3 3 5 5 1 3 5 3 5 5 5 8 10 11 12 14 16 15 15 13 12 13 15 16 17 18 17 17 17 18 23 28 31 34 36 38 41 42 42 42 41 41 41 41 43 44 45 44 43
7 4 8 7 6 7 5 6 7 5 3 4 3 3 5 5 5 5 3 4 5 6 5 3 7 10 11 11 11 12 14 14 14 14 14 15 15 14 14 16 15 15 17 18 23 28 32 35 37 39 42 41 40 41 41 42 42 44 44 43 43 42 42
6 5 6 6 6 7 3 3 5 4 3 4 5 4 4 4 4 4 3 4 5 6 6 6 9 12 12 12 11 12 14 15 14 15 15 14 13 13 14 16 16 17 18 20 26 31 33 36 37 38 38 38 39 40 41 41 42 42 40 40 40 41 42
5 4 6 9 9 8 5 5 6 4 2 2 3 3 2 4 4 4 3 5 6 5 5 9 11 12 13 13 12 12 13 15 15 15 15 14 13 14 14 15 16 18 18 20 27 33 34 35 36 36 35 36 39 40 39 41 40 39 38 39 40 41 42
3 3 7 13 14 12 9 8 8 8 5 3 4 4 3 3 5 4 4 6 9 5 5 8 9 10 11 12 12 11 11 13 13 13 15 15 12 12 13 14 15 17 17 18 23 29 30 30 31 32 33 35 36 37 38 40 39 38 39 40 41 42 41
4 6 7 11 15 15 12 9 8 8 6 5 6 7 4 3 3 2 3 5 9 6 7 9 9 10 10 10 10 10 11 12 12 13 15 13 11 12 13 14 14 15 16 17 19 24 27 28 30 32 33 34 35 38 39 39 38 39 41 41 42 41 39
3 6 6 5 5 9 10 9 8 8 8 8 7 6 4 4 4 3 3 7 8 5 6 8 7 7 7 8 9 10 10 9 9 12 13 11 12 13 12 12 12 12 13 13 14 17 20 25 29 31 32 34 36 37 38 37 39 42 42 40 40 39 40
4 4 5 5 3 3 5 6 8 10 11 11 7 3 4 3 7 8 6 8 6 4 3 5 6 5 6 8 7 8 9 8 7 8 9 10 10 9 8 9 10 11 12 12 13 14 16 22 27 29 32 34 34 36 37 38 40 41 40 39 38 39 40
7 4 5 4 2 3 4 4 9 13 14 15 10 4 5 6 7 9 7 7 6 5 3 5 7 5 7 10 7 5 7 8 8 8 7 7 7 8 10 10 11 13 13 14 15 14 15 21 26 28 30 32 33 35 38 40 40 39 39 39 38 39 39
3 2 4 4 4 4 5 4 9 12 14 16 12 8 9 7 5 7 9 6 4 5 4 7 8 6 8 9 7 6 8 9 8 8 6 6 6 8 10 10 11 13 14 14 16 16 16 21 26 28 30 32 33 34 37 39 39 37 38 39 38 39 39
3 4 10 12 8 6 7 8 8 12 13 15 16 15 10 8 6 11 10 8 7 7 7 8 8 7 7 9 9 9 8 7 6 6 5 5 6 7 8 9 11 13 14 15 16 16 16 20 25 28 30 33 34 36 37 38 37 37 37 38 38 39 38
7 6 10 12 9 6 8 11 12 12 14 17 20 18 11 10 11 15 9 10 10 8 7 9 10 9 10 10 9 7 5 6 6 6 7 7 8 8 10 11 12 14 15 15 15 15 16 18 22 26 28 31 33 34 34 35 36 37 38 38 39 39 39
8 8 9 9 7 7 8 11 13 14 16 19 21 19 14 14 16 14 7 10 11 9 8 10 10 8 7 5 3 3 4 7 7 7 7 8 8 9 10 11 12 14 16 16 15 16 15 16 19 24 26 29 31 33 33 34 36 38 38 38 39 39 40
7 8 8 8 9 10 11 12 12 14 18 20 20 17 13 12 13 12 8 9 9 7 6 9 9 4 2 4 4 5 7 7 7 7 8 9 9 9 10 11 12 13 14 14 14 15 16 17 20 24 27 30 32 33 33 34 37 38 38 38 38 39 42
5 6 7 11 15 13 11 14 15 15 15 15 14 12 10 11 11 10 11 9 8 7 6 8 9 5 4 8 8 5 6 6 7 8 9 10 9 9 9 9 11 13 14 13 15 16 17 19 22 26 28 29 29 30 32 35 37 37 37 38 39 41 42
4 7 8 10 12 10 10 13 12 12 12 10 10 9 10 13 12 10 12 10 8 7 7 6 9 9 8 9 6 4 5 6 6 8 9 9 9 7 7 8 10 12 12 12 15 16 16 19 25 31 33 31 31 35 37 37 35 35 37 38 39 40 40
3 9 9 7 5 6 7 6 5 6 12 12 11 11 9 11 13 11 10 8 9 10 9 9 12 11 7 6 5 4 3 3 5 8 8 8 7 6 6 8 9 9 9 9 11 14 19 25 30 33 34 34 35 36 35 33 33 35 37 37 37 37 37
3 7 6 3 7 7 5 11 11 7 9 12 13 15 13 12 14 14 10 9 10 11 11 12 12 7 5 5 4 3 2 2 3 6 6 6 5 5 5 6 7 7 8 8 8 11 18 23 26 27 29 31 31 29 29 32 34 36 36 36 36 35 35
1 2 2 4 8 10 13 11 8 7 5 2 6 14 16 13 11 11 10 10 10 11 11 9 6 6 6 5 3 2 2 1 2 4 6 6 6 5 5 5 6 7 8 10 12 14 16 16 18 21 25 27 26 26 29 32 33 34 35 33 33 33 33
2 3 5 5 7 12 10 4 4 5 4 4 1 6 11 9 9 10 10 11 10 8 6 5 6 7 6 4 2 0 2 3 2 3 5 6 6 6 6 5 5 6 7 11 16 18 18 18 21 22 21 22 23 23 25 27 28 29 29 30 32 33 34
3 3 5 4 4 6 3 1 4 3 3 4 3 3 6 7 8 10 11 12 10 5 5 7 7 7 6 3 3 2 2 4 4 5 5 6 6 6 7 6 5 6 6 6 12 17 19 20 23 23 21 23 24 23 23 24 25 26 28 31 34 34 35
4 4 5 4 4 5 3 5 9 8 6 4 3 3 6 6 4 6 9 11 11 9 9 9 8 7 6 6 6 2 2 3 4 4 5 7 7 6 8 9 9 9 8 3 5 10 13 15 20 23 25 27 26 23 24 26 26 26 29 32 34 36 38
6 6 5 4 4 4 4 8 11 11 8 1 4 5 7 6 6 3 8 11 11 11 12 11 9 8 7 6 5 3 3 3 3 4 5 6 7 7 10 12 13 13 15 14 9 6 3 3 13 22 26 26 25 23 24 25 25 29 34 36 36 37 36
8 8 6 5 4 3 5 9 10 11 8 0 5 6 4 9 13 9 6 9 11 11 12 11 8 5 3 5 6 6 5 4 4 5 4 4 5 7 9 12 13 14 17 17 14 13 13 8 5 17 22 21 19 18 19 20 25 31 34 34 33 33 31
7 7 5 5 4 2 5 7 6 6 3 3 4 5 9 12 13 10 7 7 8 9 8 7 6 5 7 8 8 7 5 4 5 6 6 6 7 7 9 12 13 13 14 16 17 17 18 16 9 6 14 16 15 15 16 19 25 27 23 22 25 27 29
5 5 5 5 4 2 6 5 3 5 3 3 6 10 13 12 9 8 8 6 4 7 8 9 9 10 10 9 8 7 6 6 7 8 8 8 8 8 10 13 15 14 13 13 17 19 19 20 18 11 3 5 8 11 12 13 15 16 17 20 24 26 28
5 6 6 4 3 1 3 2 2 2 3 5 7 10 10 8 8 7 6 5 2 5 11 13 12 11 10 9 8 7 7 7 7 9 9 8 8 9 10 12 15 16 13 12 16 20 21 20 20 18 13 8 5 2 1 4 6 7 12 18 23 26 29
4 4 4 4 5 3 2 3 3 2 3 6 8 9 7 5 7 6 5 4 3 3 8 11 11 10 10 9 8 8 8 8 8 8 8 8 8 9 11 13 15 16 14 13 14 17 19 18 18 18 17 14 11 8 7 7 6 5 6 11 18 24 27
1 1 3 6 6 4 3 3 4 5 5 7 8 8 6 5 6 5 5 5 4 3 3 6 9 8 8 10 10 8 8 8 8 8 9 9 9 9 10 12 14 14 14 14 14 15 16 17 15 14 14 13 10 9 9 8 7 5 4 6 12 17 21
4 2 4 7 7 5 4 3 4 6 7 7 7 7 6 6 6 6 7 8 7 5 4 5 9 9 8 10 9 8 8 8 9 10 11 10 10 11 11 13 14 13 12 12 13 13 14 15 15 14 14 13 11 9 8 7 6 5 4 4 6 10 13
5 3 5 8 7 5 5 5 5 5 6 6 7 8 6 5 6 7 9 9 7 6 5 5 9 10 9 9 9 8 8 8 9 10 11 10 10 11 13 16 17 15 13 12 14 13 13 15 17 16 16 16 16 15 11 7 4 5 5 4 5 6 8
3 3 6 8 6 6 7 7 6 6 5 4 6 9 8 6 5 7 10 11 9 7 5 4 7 11 10 8 9 10 8 7 8 9 9 9 9 10 12 15 17 16 13 13 14 14 15 17 18 19 20 21 20 20 18 13 7 4 4 4 4 4 5
5 6 7 7 5 4 4 5 8 7 5 4 6 7 8 8 4 6 11 13 11 10 8 6 4 9 9 7 9 10 9 9 9 9 9 9 8 10 13 14 15 16 14 13 14 14 15 17 18 19 21 21 21 21 21 19 14 9 6 6 7 7 7
5 5 6 6 6 6 4 5 9 7 2 3 6 6 5 7 6 4 10 13 12 9 10 8 2 6 7 8 10 11 11 10 10 10 11 10 9 10 12 13 13 14 14 14 14 13 13 15 17 17 19 20 20 19 19 19 17 14 12 12 12 12 12
8 3 5 5 7 8 6 7 9 6 2 3 6 6 4 6 6 7 11 12 12 8 6 8 4 5 8 9 10 11 12 10 10 11 12 13 13 13 13 13 12 12 13 13 13 12 13 16 17 17 18 19 18 17 17 17 17 17 16 15 14 14 14
8 3 2 5 10 11 8 8 8 5 4 6 4 2 3 6 8 10 12 11 10 8 4 7 5 6 9 9 9 11 11 9 10 13 13 14 15 15 15 14 13 13 13 14 15 15 16 17 18 18 19 19 18 16 16 15 15 17 17 16 14 13 14
Wind_Direction
190 187 180 166 165 174 167 149 183 208 148 139 213 242 184 153 262 268 217 247 285 278 279 271 219 213 208 207 214 213 220 225 223 225 213 201 205 203 202 203 203 203 201 201 203 203 203 204 203 204 204 204 204 204 204 205 206 206 205 206 207 208 208
225 189 165 182 181 150 135 184 196 129 81 138 187 236 257 226 246 279 252 232 265 254 266 263 191 206 219 212 212 214 220 223 225 226 217 208 207 203 203 204 203 203 200 201 203 203 204 203 203 204 205 205 205 205 205 205 205 206 206 206 207 208 208
208 143 153 193 204 179 168 179 173 135 143 194 170 192 226 215 234 279 286 255 239 212 235 236 189 206 222 218 213 214 219 220 222 226 223 216 209 203 202 202 203 202 201 202 202 204 205 204 204 206 206 205 204 205 207 206 207 208 207 206 206 208 208
166 134 167 193 211 225 210 130 160 164 170 183 174 184 188 183 225 256 277 272 248 222 206 187 199 213 215 214 212 211 215 216 216 221 223 218 207 202 200 200 201 201 201 203 202 203 204 203 205 206 205 203 203 205 206 207 209 209 208 206 206 207 209
156 159 197 192 190 208 203 177 192 192 171 164 176 206 177 159 195 211 228 256 257 248 200 182 199 215 215 213 211 213 216 215 215 218 222 219 209 205 203 200 200 200 202 203 203 204 205 204 205 204 202 202 203 205 205 207 208 208 207 207 207 208 209
192 204 205 194 192 196 190 196 202 192 185 138 152 235 242 163 188 185 188 252 262 245 190 188 199 210 219 215 209 217 224 220 217 219 224 222 211 206 205 202 201 200 200 201 202 203 204 203 203 202 201 202 203 204 205 207 207 206 206 206 207 208 208
214 230 220 205 206 201 193 200 197 184 182 154 175 224 219 174 217 154 135 251 267 245 190 192 199 205 216 215 205 212 225 223 217 219 227 224 213 209 206 203 201 199 200 201 198 199 200 201 201 200 200 201 202 204 205 205 206 207 208 207 207 207 207
260 266 285 288 241 204 201 212 192 179 192 190 200 211 173 181 211 157 177 245 266 270 208 200 213 220 226 228 212 211 225 230 219 219 226 223 216 214 207 200 199 198 199 198 196 198 199 200 200 198 198 200 202 204 204 204 206 208 208 206 206 206 206
237 265 288 300 300 209 213 223 202 198 196 192 205 181 136 215 203 170 198 237 244 281 263 225 247 262 256 251 233 217 227 238 233 227 228 227 221 214 199 193 194 193 194 194 195 199 199 199 199 198 198 200 201 202 203 204 207 208 206 205 204 205 206
217 219 223 225 273 252 238 214 203 207 200 193 201 193 187 227 205 176 204 233 249 292 288 232 240 249 255 259 260 245 237 239 240 235 229 222 212 200 192 190 188 190 195 197 197 198 198 198 198 197 198 200 201 203 204 205 207 206 204 203 203 204 205
237 291 268 269 326 294 273 250 205 205 208 202 200 211 213 202 178 203 217 200 216 264 236 218 233 231 240 253 257 251 241 236 237 238 235 222 211 207 199 191 191 192 195 199 197 196 196 196 196 196 198 199 200 202 204 206 206 204 202 202 202 203 204
301 314 292 289 299 278 273 278 236 208 207 204 207 219 206 146 166 233 228 174 186 238 226 215 226 224 234 247 243 241 243 239 243 258 263 245 229 225 211 199 197 195 198 202 198 196 194 193 195 197 198 200 200 202 204 205 203 202 201 200 200 202 203
307 295 283 281 283 266 255 264 254 229 211 205 213 221 196 160 203 236 223 172 189 229 234 228 226 214 218 228 227 232 247 245 242 247 247 237 225 217 209 206 201 197 201 202 196 195 193 190 192 195 198 201 201 203 205 203 201 202 200 198 199 201 202
313 301 284 279 294 296 277 266 258 244 229 217 217 219 202 197 224 236 207 180 197 216 219 225 228 217 215 225 206 198 234 248 252 255 253 248 238 223 213 210 207 203 203 201 196 193 190 188 191 193 196 199 200 202 203 200 201 201 198 198 199 200 203
313 301 306 313 312 304 289 276 262 247 239 231 225 221 205 206 229 237 216 198 215 235 232 233 245 259 281 269 247 226 237 252 263 266 260 251 243 233 222 211 207 208 207 201 194 190 190 192 192 192 196 198 199 201 200 199 201 199 197 198 199 201 205
296 298 328 324 318 313 289 268 257 245 240 238 235 227 206 199 209 224 231 225 228 247 248 249 263 279 265 253 253 258 265 263 250 245 248 249 245 239 230 219 209 209 208 201 194 192 194 193 192 194 196 197 198 200 200 200 200 197 196 198 199 203 207
288 296 314 319 323 316 274 255 248 236 235 245 253 245 218 201 193 204 227 227 213 212 209 226 253 253 241 242 242 242 264 278 270 254 248 250 254 248 234 226 217 212 208 202 199 198 195 192 195 197 195 193 197 200 200 200 197 194 196 199 201 205 206
278 293 308 323 302 251 246 289 312 241 223 221 232 242 229 207 204 211 221 217 206 201 187 198 228 236 224 212 200 193 221 273 292 283 268 263 271 266 236 227 224 217 211 208 207 203 200 199 200 200 197 197 200 201 198 195 192 193 197 200 202 205 204
255 297 327 310 237 232 293 331 333 291 233 209 215 233 231 214 216 222 217 210 211 208 199 204 214 204 156 143 143 135 165 218 276 297 297 300 310 301 265 246 234 214 200 200 207 209 209 208 204 200 199 200 200 196 192 191 192 194 197 200 203 204 203
203 299 302 234 248 292 318 323 333 341 323 281 237 241 237 220 209 214 218 219 218 213 210 206 182 147 131 114 103 104 85 48 343 319 310 312 321 319 302 282 257 232 208 197 199 204 209 209 203 201 202 199 194 190 191 192 193 194 196 199 202 203 203
175 217 255 262 294 309 315 331 4 4 341 335 320 249 253 235 194 190 206 220 228 223 201 169 148 141 120 82 69 122 45 32 354 330 315 306 312 318 314 303 285 275 249 217 203 196 194 197 200 202 200 193 188 188 190 192 193 194 196 200 202 203 204
182 201 261 282 297 285 264 298 319 305 270 259 195 195 272 258 205 193 199 205 211 199 150 149 152 138 117 129 207 235 26 24 3 350 330 315 320 328 328 329 329 326 309 244 209 195 189 192 197 195 191 186 184 186 187 188 190 193 198 204 204 203 205
175 182 231 240 241 245 258 314 319 317 303 276 174 190 268 267 217 198 199 198 194 173 157 158 153 142 156 203 223 220 56 41 22 359 339 340 344 341 346 353 353 352 4 36 171 182 184 191 194 191 187 184 183 185 188 188 190 195 204 207 205 205 207
184 191 221 242 243 250 304 330 324 316 311 323 146 204 259 309 326 260 200 198 194 176 164 160 162 172 185 197 193 146 103 77 51 21 353 350 352 353 2 6 8 19 38 55 68 72 70 190 194 189 186 184 185 190 191 190 193 201 206 208 207 209 209
197 200 227 262 253 260 324 329 322 319 320 116 171 208 267 320 314 295 243 215 198 177 168 166 174 191 157 124 126 120 106 97 79 50 23 13 19 23 22 20 24 38 51 56 56 47 38 39 171 187 185 182 187 191 189 194 206 210 210 208 207 209 208
204 193 217 257 253 289 335 321 324 346 345 201 224 287 307 302 300 310 301 249 195 162 160 154 138 129 114 106 111 111 99 94 82 60 47 44 41 42 41 36 39 48 53 52 49 42 38 42 56 159 185 184 185 187 189 204 217 220 218 213 210 209 209
194 178 200 232 232 299 338 320 349 28 10 264 294 313 305 297 310 338 326 283 200 145 135 125 120 124 120 111 112 108 91 79 73 63 57 51 42 44 46 43 45 51 53 50 46 39 36 41 44 48 103 175 184 188 197 218 230 232 229 221 215 213 212
186 183 193 194 179 158 6 14 104 48 322 300 315 310 299 314 342 346 333 319 301 135 129 128 129 127 120 118 118 106 87 77 69 63 60 53 44 44 47 46 49 55 59 54 47 42 39 39 41 42 45 50 61 107 233 286 284 262 241 227 219 216 215
214 181 167 144 146 147 98 103 115 76 351 338 329 305 297 338 352 337 341 348 346 85 115 122 122 119 118 117 108 94 84 75 65 61 58 52 48 46 46 46 49 57 65 64 58 51 45 43 43 41 42 46 46 33 12 351 333 309 265 234 223 219 218
274 86 130 138 142 147 140 131 113 82 44 5 334 313 323 358 351 347 7 4 352 14 70 102 105 102 104 101 91 83 80 71 59 58 54 48 47 47 47 47 48 55 62 62 60 58 51 48 50 49 47 48 42 22 9 4 351 325 287 243 231 227 225
234 183 161 150 149 159 152 114 77 66 50 15 336 325 349 1 352 12 32 18 2 7 28 79 94 90 84 86 84 75 70 63 55 54 52 45 40 39 40 42 45 52 56 50 48 49 44 40 44 51 54 51 41 25 11 3 354 336 303 259 246 242 239
233 175 166 151 138 127 99 79 60 52 43 13 340 335 356 16 11 27 44 34 16 18 35 73 96 95 84 80 80 71 62 57 55 56 54 49 41 36 34 34 36 40 41 38 39 38 32 29 32 38 41 39 34 31 24 10 351 340 322 282 255 253 252
229 155 168 152 120 75 64 73 70 50 28 10 358 345 342 3 31 50 58 48 26 14 14 40 88 96 89 80 79 79 72 65 65 65 62 58 52 47 44 42 43 43 40 35 35 30 22 21 25 29 30 29 28 28 25 20 16 0 332 317 303 289 282
207 182 183 165 128 91 80 87 78 58 12 6 37 11 335 331 357 60 74 65 40 11 346 341 67 94 95 91 90 89 85 81 79 77 72 68 63 60 60 60 57 55 51 46 43 34 25 26 30 30 27 25 26 26 24 23 24 21 8 8 14 15 15
239 197 182 161 125 114 124 107 89 76 10 9 54 46 343 319 324 38 79 80 66 29 339 322 20 97 102 100 98 94 88 85 84 80 78 77 72 64 64 65 62 58 56 54 51 45 39 39 40 37 32 30 29 28 27 29 32 35 41 48 49 46 44
272 226 172 145 114 116 130 117 103 101 91 49 49 37 4 334 338 27 59 69 73 61 340 310 333 79 90 90 90 90 88 85 84 83 79 75 73 68 62 61 60 58 55 52 51 50 50 50 47 42 40 39 36 34 35 40 44 49 53 57 61 60 59
263 240 159 116 108 113 115 102 95 94 81 69 52 6 38 32 15 27 45 50 57 59 356 309 330 51 74 80 81 82 84 80 77 79 77 69 66 63 55 51 52 55 54 51 48 48 51 52 50 46 43 41 39 39 43 46 50 52 52 51 54 57 60